NOZ173 ESGG-ENBR

Flight info

Callsign NOZ173
Flight time 0h 53m
Altitude 32000
Route DETNA DCT ARTOR DCT TITUX DCT PESUR
Aircraft B38M/M-SDE1FGHILORVWXY/HB1

Departure

Time 2026-05-06 16:47
Airport Göteborg Landvetter Airport (ESGG)

Arrival

Time 2026-05-06 17:40
Airport Bergen Airport, Flesland (ENBR)
Time Latitude Longitude Altitude Speed Heading
2026-05-06 16:29 57.66850 12.29367 518 ft 0 kts 116°
2026-05-06 16:39 57.66853 12.29358 518 ft 3 kts 116°
2026-05-06 16:39 57.66861 12.29328 518 ft 3 kts 116°
2026-05-06 16:40 57.66868 12.29299 518 ft 2 kts 122°
2026-05-06 16:40 57.66871 12.29291 518 ft 3 kts 123°
2026-05-06 16:40 57.66880 12.29265 518 ft 0 kts 123°
2026-05-06 16:41 57.66881 12.29269 518 ft 0 kts 88°
2026-05-06 16:41 57.66883 12.29272 518 ft 0 kts 44°
2026-05-06 16:41 57.66886 12.29273 518 ft 0 kts 21°
2026-05-06 16:42 57.66905 12.29288 518 ft 8 kts 21°
2026-05-06 16:42 57.66967 12.29319 518 ft 8 kts 348°
2026-05-06 16:43 57.67005 12.29237 518 ft 9 kts 306°
2026-05-06 16:43 57.67068 12.29213 518 ft 12 kts 18°
2026-05-06 16:43 57.67156 12.29294 518 ft 17 kts 27°
2026-05-06 16:43 57.67260 12.29386 518 ft 14 kts 25°
2026-05-06 16:44 57.67346 12.29458 518 ft 12 kts 15°
2026-05-06 16:44 57.67423 12.29414 518 ft 11 kts 313°
2026-05-06 16:44 57.67452 12.29323 518 ft 7 kts 293°
2026-05-06 16:44 57.67459 12.29277 518 ft 0 kts 279°
2026-05-06 16:45 57.67461 12.29250 518 ft 5 kts 275°
2026-05-06 16:45 57.67459 12.29141 516 ft 13 kts 264°
2026-05-06 16:45 57.67432 12.29029 518 ft 8 kts 219°
2026-05-06 16:46 57.67413 12.29009 518 ft 7 kts 208°
2026-05-06 16:46 57.67124 12.28742 516 ft 85 kts 206°
2026-05-06 16:46 57.66378 12.28054 513 ft 151 kts 206°
2026-05-06 16:46 57.65292 12.27097 748 ft 186 kts 208°
2026-05-06 16:47 57.64107 12.26003 1561 ft 196 kts 210°
2026-05-06 16:47 57.62846 12.24762 2299 ft 215 kts 210°
2026-05-06 16:47 57.61473 12.23379 2883 ft 240 kts 210°
2026-05-06 16:47 57.59984 12.21894 3929 ft 244 kts 205°
2026-05-06 16:48 57.58395 12.20536 4670 ft 259 kts 208°
2026-05-06 16:48 57.57093 12.18292 4665 ft 256 kts 237°
2026-05-06 16:48 57.56499 12.15145 4820 ft 262 kts 256°
2026-05-06 16:48 57.56126 12.11811 4955 ft 264 kts 256°
2026-05-06 16:49 57.55754 12.08441 5214 ft 267 kts 256°
2026-05-06 16:49 57.55389 12.05077 6326 ft 264 kts 256°
2026-05-06 16:49 57.55028 12.01694 7274 ft 270 kts 256°
2026-05-06 16:49 57.54662 11.98241 8269 ft 274 kts 257°
2026-05-06 16:50 57.54290 11.94732 9225 ft 278 kts 257°
2026-05-06 16:50 57.54001 11.91140 10161 ft 283 kts 270°
2026-05-06 16:50 57.54186 11.87457 10906 ft 293 kts 276°
2026-05-06 16:50 57.54338 11.84905 11198 ft 306 kts 276°
2026-05-06 16:51 57.54662 11.79451 11688 ft 333 kts 276°
2026-05-06 16:51 57.54926 11.74978 11999 ft 353 kts 276°
2026-05-06 16:51 57.55197 11.70378 12316 ft 370 kts 276°
2026-05-06 16:51 57.55480 11.65546 12789 ft 380 kts 276°
2026-05-06 16:52 57.55765 11.60646 13587 ft 381 kts 276°
2026-05-06 16:52 57.56050 11.55706 14224 ft 385 kts 276°
2026-05-06 16:52 57.56335 11.50728 14854 ft 388 kts 276°
2026-05-06 16:52 57.56620 11.45712 15506 ft 390 kts 275°
2026-05-06 16:53 57.56906 11.40665 16144 ft 393 kts 275°
2026-05-06 16:53 57.57094 11.37305 16570 ft 394 kts 275°
2026-05-06 16:53 57.57379 11.32214 17188 ft 396 kts 275°
2026-05-06 16:53 57.57663 11.27081 17802 ft 399 kts 275°
2026-05-06 16:54 57.57947 11.21922 18371 ft 401 kts 275°
2026-05-06 16:54 57.58231 11.16730 18881 ft 403 kts 275°
2026-05-06 16:54 57.58788 11.11596 19391 ft 408 kts 288°
2026-05-06 16:54 57.60143 11.06931 19928 ft 415 kts 304°
2026-05-06 16:55 57.62205 11.03106 20421 ft 424 kts 319°
2026-05-06 16:55 57.64651 10.99981 20901 ft 428 kts 322°
2026-05-06 16:55 57.67140 10.96886 21334 ft 431 kts 322°
2026-05-06 16:55 57.69655 10.93797 21816 ft 434 kts 322°
2026-05-06 16:56 57.72194 10.90703 22269 ft 437 kts 322°
2026-05-06 16:56 57.74751 10.87594 22732 ft 440 kts 322°
2026-05-06 16:56 57.77329 10.84460 23170 ft 442 kts 322°
2026-05-06 16:56 57.79920 10.81306 23586 ft 446 kts 322°
2026-05-06 16:57 57.82528 10.78125 23866 ft 449 kts 321°
2026-05-06 16:57 57.85154 10.74918 23957 ft 451 kts 321°
2026-05-06 16:57 57.87778 10.71707 23957 ft 449 kts 321°
2026-05-06 16:57 57.90394 10.68500 23957 ft 449 kts 321°
2026-05-06 16:58 57.93009 10.65289 23955 ft 449 kts 321°
2026-05-06 16:58 57.95624 10.62072 23955 ft 449 kts 321°
2026-05-06 16:58 57.98238 10.58850 24023 ft 450 kts 321°
2026-05-06 16:58 58.00860 10.55612 24403 ft 451 kts 321°
2026-05-06 16:59 58.03459 10.52397 24743 ft 454 kts 321°
2026-05-06 16:59 58.06108 10.49113 25102 ft 456 kts 320°
2026-05-06 16:59 58.08769 10.45810 25478 ft 458 kts 320°
2026-05-06 16:59 58.11435 10.42497 25869 ft 459 kts 320°
2026-05-06 17:00 58.14113 10.39161 26167 ft 462 kts 320°
2026-05-06 17:00 58.16802 10.35804 26539 ft 463 kts 320°
2026-05-06 17:00 58.19492 10.32441 26982 ft 462 kts 320°
2026-05-06 17:00 58.22170 10.29086 27414 ft 462 kts 319°
2026-05-06 17:01 58.24850 10.25723 27850 ft 461 kts 319°
2026-05-06 17:01 58.27531 10.22352 28297 ft 461 kts 319°
2026-05-06 17:01 58.30204 10.18988 28719 ft 460 kts 319°
2026-05-06 17:01 58.32863 10.15612 29145 ft 458 kts 316°
2026-05-06 17:02 58.35328 10.11869 29571 ft 453 kts 313°
2026-05-06 17:02 58.37727 10.08101 29982 ft 452 kts 313°
2026-05-06 17:02 58.40143 10.04277 30335 ft 452 kts 312°
2026-05-06 17:02 58.42557 10.00440 30685 ft 451 kts 312°
2026-05-06 17:03 58.44961 9.96611 31085 ft 449 kts 312°
2026-05-06 17:03 58.47354 9.92791 31482 ft 447 kts 312°
2026-05-06 17:03 58.49737 9.88982 31821 ft 447 kts 312°
2026-05-06 17:03 58.52126 9.85155 31972 ft 448 kts 312°
2026-05-06 17:04 58.54509 9.81331 31956 ft 446 kts 312°
2026-05-06 17:04 58.59258 9.73688 31959 ft 445 kts 312°
2026-05-06 17:05 58.63997 9.66033 31959 ft 446 kts 312°
2026-05-06 17:05 58.68782 9.58274 31990 ft 451 kts 311°
2026-05-06 17:06 58.73569 9.50488 31955 ft 450 kts 311°
2026-05-06 17:06 58.78341 9.42694 31956 ft 449 kts 312°
2026-05-06 17:07 58.83107 9.34879 31951 ft 450 kts 311°
2026-05-06 17:07 58.87808 9.27144 31952 ft 444 kts 311°
2026-05-06 17:08 58.92490 9.19411 31955 ft 444 kts 311°
2026-05-06 17:08 58.97227 9.11559 31938 ft 450 kts 311°
2026-05-06 17:09 59.01978 9.03658 31977 ft 449 kts 311°
2026-05-06 17:09 59.06473 8.95415 31979 ft 443 kts 307°
2026-05-06 17:10 59.10856 8.86965 31945 ft 443 kts 308°
2026-05-06 17:10 59.15252 8.78531 31936 ft 443 kts 308°
2026-05-06 17:11 59.19621 8.70127 31834 ft 438 kts 308°
2026-05-06 17:11 59.21785 8.65949 31591 ft 437 kts 307°
2026-05-06 17:11 59.23946 8.61773 31326 ft 437 kts 307°
2026-05-06 17:11 59.26104 8.57592 31019 ft 437 kts 307°
2026-05-06 17:12 59.28266 8.53399 30684 ft 438 kts 307°
2026-05-06 17:12 59.30424 8.49203 30343 ft 438 kts 307°
2026-05-06 17:12 59.32586 8.44993 30012 ft 439 kts 307°
2026-05-06 17:12 59.34747 8.40773 29733 ft 438 kts 307°
2026-05-06 17:13 59.36873 8.36620 29353 ft 436 kts 306°
2026-05-06 17:13 59.39017 8.32421 28960 ft 435 kts 307°
2026-05-06 17:13 59.41160 8.28216 28565 ft 435 kts 307°
2026-05-06 17:13 59.43300 8.24009 28129 ft 435 kts 307°
2026-05-06 17:14 59.45440 8.19794 27712 ft 435 kts 307°
2026-05-06 17:14 59.47578 8.15572 27304 ft 436 kts 307°
2026-05-06 17:14 59.49719 8.11339 26900 ft 436 kts 307°
2026-05-06 17:14 59.51853 8.07111 26511 ft 436 kts 307°
2026-05-06 17:15 59.53990 8.02871 26110 ft 436 kts 308°
2026-05-06 17:15 59.56133 7.98607 25730 ft 437 kts 308°
2026-05-06 17:15 59.58268 7.94354 25349 ft 435 kts 308°
2026-05-06 17:15 59.60390 7.90118 24984 ft 433 kts 308°
2026-05-06 17:16 59.62501 7.85896 24616 ft 430 kts 308°
2026-05-06 17:16 59.64593 7.81705 24281 ft 426 kts 308°
2026-05-06 17:16 59.66658 7.77558 23959 ft 420 kts 308°
2026-05-06 17:16 59.68693 7.73464 23638 ft 414 kts 308°
2026-05-06 17:17 59.70700 7.69419 23229 ft 410 kts 308°
2026-05-06 17:17 59.72666 7.65448 22821 ft 407 kts 308°
2026-05-06 17:17 59.74647 7.61442 22428 ft 406 kts 308°
2026-05-06 17:17 59.76617 7.57449 22016 ft 404 kts 308°
2026-05-06 17:18 59.78582 7.53461 21615 ft 403 kts 308°
2026-05-06 17:18 59.80539 7.49483 21211 ft 402 kts 308°
2026-05-06 17:18 59.82486 7.45518 20821 ft 400 kts 308°
2026-05-06 17:18 59.84430 7.41551 20432 ft 399 kts 308°
2026-05-06 17:19 59.86361 7.37603 20049 ft 398 kts 308°
2026-05-06 17:19 59.88287 7.33658 19670 ft 397 kts 308°
2026-05-06 17:19 59.90213 7.29708 19297 ft 396 kts 308°
2026-05-06 17:19 59.92126 7.25775 18948 ft 394 kts 308°
2026-05-06 17:20 59.94024 7.21869 18583 ft 390 kts 308°
2026-05-06 17:20 59.95883 7.18034 18214 ft 389 kts 309°
2026-05-06 17:20 59.97783 7.14110 17797 ft 387 kts 309°
2026-05-06 17:20 59.99614 7.10319 17448 ft 380 kts 308°
2026-05-06 17:21 60.01438 7.06540 17050 ft 375 kts 309°
2026-05-06 17:21 60.03242 7.02793 16663 ft 373 kts 309°
2026-05-06 17:21 60.05038 6.99059 16278 ft 372 kts 309°
2026-05-06 17:21 60.06829 6.95326 15895 ft 371 kts 309°
2026-05-06 17:22 60.08615 6.91600 15475 ft 370 kts 309°
2026-05-06 17:22 60.10390 6.87888 15097 ft 369 kts 310°
2026-05-06 17:22 60.12164 6.84174 14715 ft 368 kts 310°
2026-05-06 17:22 60.13933 6.80467 14347 ft 367 kts 310°
2026-05-06 17:23 60.15698 6.76762 13977 ft 365 kts 310°
2026-05-06 17:23 60.17405 6.73176 13576 ft 345 kts 310°
2026-05-06 17:23 60.19018 6.69778 13166 ft 328 kts 310°
2026-05-06 17:23 60.20557 6.66534 12772 ft 313 kts 311°
2026-05-06 17:24 60.22026 6.63433 12358 ft 301 kts 312°
2026-05-06 17:24 60.23442 6.60438 11965 ft 291 kts 312°
2026-05-06 17:24 60.24635 6.57271 11512 ft 280 kts 295°
2026-05-06 17:24 60.25358 6.53767 11119 ft 270 kts 292°
2026-05-06 17:25 60.26062 6.50323 10721 ft 261 kts 292°
2026-05-06 17:25 60.26746 6.47001 10360 ft 254 kts 292°
2026-05-06 17:25 60.27415 6.43767 10080 ft 243 kts 292°
2026-05-06 17:25 60.28055 6.40679 10079 ft 237 kts 292°
2026-05-06 17:26 60.28689 6.37618 10023 ft 236 kts 292°
2026-05-06 17:26 60.29320 6.34570 10015 ft 236 kts 292°
2026-05-06 17:26 60.29954 6.31501 9651 ft 238 kts 292°
2026-05-06 17:26 60.30590 6.28424 9139 ft 238 kts 292°
2026-05-06 17:27 60.31227 6.25334 8611 ft 239 kts 292°
2026-05-06 17:27 60.31862 6.22250 8155 ft 237 kts 292°
2026-05-06 17:27 60.32479 6.19249 8050 ft 229 kts 291°
2026-05-06 17:27 60.33091 6.16272 8045 ft 230 kts 291°
2026-05-06 17:28 60.33703 6.13291 8031 ft 230 kts 292°
2026-05-06 17:28 60.34314 6.10303 8046 ft 230 kts 291°
2026-05-06 17:28 60.34926 6.07314 8032 ft 230 kts 291°
2026-05-06 17:28 60.35534 6.04333 8016 ft 229 kts 291°
2026-05-06 17:29 60.36142 6.01353 8018 ft 229 kts 291°
2026-05-06 17:29 60.36750 5.98365 7938 ft 230 kts 291°
2026-05-06 17:29 60.37352 5.95401 7715 ft 230 kts 291°
2026-05-06 17:29 60.37960 5.92410 7489 ft 230 kts 291°
2026-05-06 17:30 60.38566 5.89420 7242 ft 229 kts 291°
2026-05-06 17:30 60.39168 5.86442 6992 ft 228 kts 291°
2026-05-06 17:30 60.39769 5.83471 6766 ft 228 kts 291°
2026-05-06 17:30 60.40367 5.80509 6513 ft 227 kts 291°
2026-05-06 17:31 60.40959 5.77567 6261 ft 226 kts 291°
2026-05-06 17:31 60.41550 5.74629 6029 ft 224 kts 291°
2026-05-06 17:31 60.42136 5.71714 5965 ft 223 kts 291°
2026-05-06 17:31 60.42720 5.68806 5971 ft 223 kts 291°
2026-05-06 17:32 60.43305 5.65884 6006 ft 224 kts 291°
2026-05-06 17:32 60.43889 5.62963 5993 ft 224 kts 291°
2026-05-06 17:32 60.44473 5.60039 5866 ft 225 kts 291°
2026-05-06 17:32 60.45059 5.57099 5620 ft 225 kts 291°
2026-05-06 17:33 60.45644 5.54164 5380 ft 224 kts 291°
2026-05-06 17:33 60.46227 5.51235 5116 ft 223 kts 291°
2026-05-06 17:33 60.46802 5.48338 4900 ft 221 kts 291°
2026-05-06 17:33 60.47367 5.45430 4702 ft 222 kts 287°
2026-05-06 17:34 60.47690 5.42425 4480 ft 221 kts 278°
2026-05-06 17:34 60.47899 5.39336 4275 ft 221 kts 277°
2026-05-06 17:34 60.48106 5.36259 4091 ft 220 kts 277°
2026-05-06 17:34 60.48309 5.33191 3886 ft 219 kts 277°
2026-05-06 17:35 60.48511 5.30142 3669 ft 217 kts 276°
2026-05-06 17:35 60.48539 5.27095 3486 ft 215 kts 268°
2026-05-06 17:35 60.48470 5.24077 3272 ft 212 kts 267°
2026-05-06 17:36 60.47701 5.18683 2991 ft 200 kts 219°
2026-05-06 17:36 60.46508 5.17385 3013 ft 193 kts 207°
2026-05-06 17:36 60.45221 5.16638 2977 ft 194 kts 186°
2026-05-06 17:36 60.43915 5.16824 3015 ft 184 kts 173°
2026-05-06 17:37 60.42658 5.17296 2765 ft 184 kts 173°
2026-05-06 17:37 60.41404 5.17743 2498 ft 182 kts 174°
2026-05-06 17:37 60.40171 5.18159 2244 ft 177 kts 174°
2026-05-06 17:37 60.38971 5.18565 1995 ft 171 kts 173°
2026-05-06 17:38 60.37850 5.18947 1781 ft 162 kts 173°
2026-05-06 17:38 60.36744 5.19317 1542 ft 164 kts 173°
2026-05-06 17:38 60.35651 5.19688 1327 ft 153 kts 174°
2026-05-06 17:38 60.34610 5.20039 1098 ft 153 kts 174°
2026-05-06 17:39 60.33562 5.20398 889 ft 152 kts 172°
2026-05-06 17:39 60.32527 5.20772 649 ft 151 kts 173°
2026-05-06 17:39 60.31502 5.21102 422 ft 147 kts 174°
2026-05-06 17:39 60.30495 5.21446 232 ft 145 kts 173°
2026-05-06 17:40 60.29858 5.21651 178 ft 131 kts 172°
2026-05-06 17:40 60.29130 5.21884 180 ft 70 kts 171°
2026-05-06 17:40 60.28752 5.22013 177 ft 34 kts 169°
2026-05-06 17:40 60.28668 5.22152 177 ft 8 kts 94°
2026-05-06 17:41 60.28671 5.22226 177 ft 0 kts 82°
2026-05-06 17:41 60.28673 5.22250 177 ft 1 kts 82°
2026-05-06 17:41 60.28673 5.22257 177 ft 0 kts 82°
2026-05-06 17:42 60.28677 5.22307 177 ft 5 kts 77°
2026-05-06 17:43 60.28722 5.22349 176 ft 13 kts 356°
2026-05-06 17:43 60.28792 5.22331 176 ft 3 kts
2026-05-06 17:43 60.28841 5.22397 176 ft 13 kts 20°
2026-05-06 17:43 60.28887 5.22437 176 ft 2 kts 55°
2026-05-06 17:44 60.28895 5.22518 176 ft 6 kts 83°
2026-05-06 17:44 60.28895 5.22524 176 ft 0 kts 84°